Probability
0 0 0 0 0 0 0 0 0 0 0 0 0 0 0 0 0 0 0 0 0 0 0 0 0 0 0 0 0 0 0 0 0 0 0 0 0 0 0 0 0 0 0 0
0 0 0 0 0 0 0 0 0 0 0 0 0 0 0 0 0 0 0 0 0 0 0 0 0 0 0 0 0 0 0 0 0 0 0 0 0 0 0 0 0 0 0 0
0 0 0 0 0 0 0 0 0 0 0 0 0 0 0 0 0 0 0 0 0 0 0 0 0 0 0 0 0 0 0 0 0 0 0 0 0 0 0 0 0 0 0 0
0 0 0 0 0 0 0 0 0 0 0 0 0 0 0 0 0 0 0 0 0 0 0 0 0 0 0 0 0 0 0 0 0 0 0 0 0 0 0 0 0 0 0 0
0 0 0 0 0 0 0 0 0 0 0 0 0 0 0 0 0 0 0 0 0 0 0 0 0 0 0 0 0 0 0 0 0 0 0 0 0 0 0 0 0 0 0 0
0 0 0 0 0 0 0 0 0 0 0 0 0 0 0 0 0 0 0 0 0 0 0 0 0 0 0 0 0 0 0 0 0 0 0 0 0 0 0 0 0 0 0 0
0 0 0 0 0 0 0 0 0 0 0 0 0 0 0 0 0 0 0 0 0 0 0 0 0 0 0 0 0 0 0 0 0 0 0 0 0 0 0 0 0 0 0 0
0 0 0 0 0 0 0 0 0 0 0 0 0 0 0 0 0 0 0 0 0 0 0 0 0 0 0 0 0 0 0 0 0 0 0 0 0 0 0 0 0 0 0 0
0 0 0 0 0 0 0 0 0 0 0 0 0 0 0 0 0 0 0 0 0 0 0 0 0 0 0 0 0 0 0 0 0 0 0 0 0 0 0 0 0 0 0 0
0 0 0 0 0 0 0 0 0 0 0 0 0 0 0 0 0 0 0 0 0 0 0 0 0 0 0 0 0 0 0 0 0 0 0 0 0 0 0 0 0 0 0 0
0 0 0 0 0 0 0 0 0 0 0 0 0 0 0 0 0 0 0 0 0 0 0 0 0 0 0 0 0 0 0 0 0 0 0 0 0 0 0 0 0 0 0 0
0 0 0 0 0 0 0 0 0 0 0 0 0 0 0 0 0 0 0 0 0 0 0 0 0 0 0 0 0 0 0 0 0 0 0 0 0 0 0 0 0 0 0 0
0 0 0 0 0 0 0 0 0 0 0 0 0 0 0 0 0 0 0 0 0 0 0 0 0 0 0 0 0 0 0 0 0 0 0 0 0 0 0 0 0 0 0 0
0 0 0 0 0 0 0 0 0 0 0 0 0 0 0 0 0 0 0 0 0 0 0 0 0 0 0 0 0 0 0 0 0 0 0 0 0 0 0 0 0 0 0 0
0 0 0 0 0 0 0 0 0 0 0 0 0 0 0 0 0 0 0 0 0 0 0 0 0 0 0 0 0 0 0 0 0 0 0 0 0 0 0 0 0 0 0 0
0 0 0 0 0 0 0 0 0 0 0 0 0 0 0 0 0 0 0 0 0 0 0 0 0 0 0 0 0 0 0 0 0 0 0 0 0 0 0 0 0 0 0 0
0 0 0 0 0 0 0 0 0 0 0 0 0 0 0 0 0 0 0 0 0 0 0 0 0 0 0 0 0 0 0 0 0 0 0 0 0 0 0 0 0 0 0 0
0 0 0 0 0 0 0 0 0 0 0 0 0 0 0 0 0 0 0 0 0 0 0 0 0 0 0 0 0 0 0 0 0 0 0 0 0 0 0 0 0 0 0 0
0 0 0 0 0 0 0 0 0 0 0 0 0 0 0 0 0 0 0 0 0 0 0 0 0 0 0 0 0 0 0 0 0 0 0 0 0 0 0 0 0 0 0 0
0 0 0 0 0 0 0 0 0 0 0 0 0 0 0 0 0 0 0 0 0 0 0 0 0 0 0 0 0 0 0 0 0 0 0 0 0 0 0 0 0 0 0 0
0 0 0 0 0 0 0 0 0 0 0 0 0 0 0 0 0 0 0 0 0 0 0 0 0 0 0 0 0 0 0 0 0 0 0 0 0 0 0 0 0 0 0 0
0 0 0 0 0 0 0 0 0 0 0 0 0 0 0 0 0 0 0 0 0 0 0 0 0 0 0 0 0 0 0 0 0 0 0 0 0 0 0 0 0 0 0 0
0 0 0 0 0 0 0 0 0 0 0 0 0 0 0 0 0 0 0 0 0 0 0 0 0 0 0 0 0 0 0 0 0 0 0 0 0 0 0 0 0 0 0 0
0 0 0 0 0 0 0 0 0 0 0 0 0 0 0 0 0 0 0 0 0 0 0 0 0 0 0 0 0 0 0 0 0 0 0 0 0 0 0 0 0 0 0 0
0 0 0 0 0 0 0 0 0 0 0 0 0 0 0 0 0 0 0 0 0 0 0 0 0 0 0 0 0 0 0 0 0 0 0 0 0 0 0 0 0 0 0 0
0 0 0 0 0 0 0 0 0 0 0 0 0 0 0 0 0 0 0 0 0 0 0 0 0 0 0 0 0 0 0 0 0 0 0 0 0 0 0 0 0 0 0 0
0 0 0 0 0 0 0 0 0 0 0 0 0 0 0 0 0 0 0 0 0 0 0 0 0 0 0 0 0 0 0 0 0 0 0 0 0 0 0 0 0 0 0 0
Wind_Speed
0 2 6 8 9 9 6 3 4 5 7 7 8 9 10 10 10 10 10 10 10 10 9 9 8 8 9 8 8 9 9 9 8 7 7 7 8 7 7 7 8 6 6 5
3 6 10 13 13 10 9 7 8 9 7 7 9 9 10 10 10 10 9 10 10 9 9 9 8 8 8 8 7 7 8 7 7 7 7 7 6 6 6 6 5 5 5 4
2 0 6 9 8 8 7 6 3 4 6 10 9 8 8 8 9 9 9 9 9 8 8 8 7 7 7 7 6 7 7 6 6 6 6 5 5 5 5 4 4 3 2 2
2 6 6 1 1 9 10 8 7 9 10 9 10 8 7 6 8 9 9 8 8 7 7 6 6 6 6 6 6 6 5 5 5 5 5 4 4 4 3 2 2 1 1 1
4 4 4 1 0 2 5 5 4 9 11 11 11 9 7 6 7 8 8 8 7 6 6 6 5 5 5 5 5 5 4 4 3 4 4 3 3 2 1 1 1 1 1 2
4 4 2 2 4 3 8 4 3 7 11 10 7 5 4 5 8 9 8 7 6 6 6 5 4 5 5 4 4 3 3 3 3 3 3 2 1 0 1 1 1 1 1 1
4 3 1 3 5 3 2 4 5 6 7 6 2 4 8 9 8 8 8 7 6 6 5 4 4 5 5 4 3 2 3 3 3 2 2 2 1 0 1 2 2 2 2 2
3 3 2 5 4 3 4 4 6 6 5 8 10 11 10 9 8 8 7 6 6 5 4 3 4 4 4 2 1 2 3 2 1 1 1 1 0 1 2 2 3 3 3 3
4 4 3 2 4 4 6 7 5 6 8 12 12 11 9 8 7 6 6 5 5 5 4 3 3 4 3 1 2 2 1 1 0 1 1 1 0 1 1 2 2 2 2 2
5 3 3 5 6 6 6 7 8 10 11 11 11 10 9 7 6 5 5 5 4 5 4 2 2 3 2 2 2 2 1 1 1 1 1 2 1 0 1 1 1 1 1 1
4 4 5 4 5 8 9 11 11 10 9 9 10 10 8 7 6 5 4 4 4 4 4 3 2 2 2 2 2 2 1 2 2 1 1 1 1 0 2 2 3 3 2 1
6 7 6 5 5 10 11 10 11 12 9 8 9 9 7 6 5 4 5 4 4 4 4 3 3 2 2 2 3 3 2 2 2 1 1 1 1 1 2 1 2 3 3 2
6 6 7 8 8 8 9 10 10 10 10 9 7 8 7 5 4 4 5 5 5 4 4 3 2 2 2 2 2 3 3 3 2 1 1 1 2 2 1 2 2 2 3 3
10 10 8 6 7 9 11 11 11 10 9 9 7 7 7 5 5 5 5 4 4 3 3 3 2 1 2 2 2 2 3 3 2 2 2 2 2 2 2 1 1 2 3 5
7 8 9 9 9 10 11 12 12 10 8 7 7 8 7 6 5 4 4 4 4 3 3 2 1 2 3 1 1 1 1 1 1 1 2 1 1 1 1 1 1 1 2 3
10 11 11 12 12 11 12 12 11 9 8 8 7 7 7 6 5 4 4 5 5 3 2 2 0 2 2 1 1 1 1 1 2 2 2 2 2 2 1 1 0 1 1 2
12 10 11 11 11 11 10 10 9 9 8 8 8 7 7 6 5 4 3 3 4 3 2 1 1 3 2 1 1 0 0 1 3 3 2 2 2 2 2 1 1 1 1 2
12 12 12 13 12 11 11 10 10 10 9 8 8 7 6 6 5 4 3 4 3 2 0 2 2 2 2 2 1 0 1 2 2 3 2 2 2 2 2 2 2 1 1 2
12 12 11 12 12 11 10 10 10 9 9 8 7 7 6 5 4 3 4 4 3 2 3 3 3 3 3 3 2 1 1 3 3 2 2 3 3 3 3 3 2 2 2 2
11 12 12 11 11 10 11 10 10 9 8 8 7 6 5 4 4 5 4 3 3 4 3 0 3 3 3 4 4 1 2 4 4 3 3 3 3 3 3 3 3 3 3 3
13 12 12 11 11 11 11 11 10 9 8 8 7 7 5 4 5 5 4 1 3 2 1 2 2 1 3 4 3 2 3 4 4 4 4 4 3 3 3 3 3 2 2 2
11 11 11 11 10 10 9 9 9 9 8 7 7 7 6 5 4 3 3 3 2 1 2 2 1 2 4 4 3 3 4 5 4 4 4 4 4 4 3 3 2 2 2 2
10 10 10 11 11 9 9 8 9 9 8 7 7 7 6 5 4 4 2 3 2 3 3 1 1 4 6 4 3 4 4 5 4 4 4 4 4 4 3 3 2 2 2 2
9 9 10 10 9 9 8 7 7 7 7 7 7 7 6 5 3 3 3 4 5 4 2 1 2 5 6 3 4 4 4 4 4 4 4 4 3 3 3 3 2 2 2 3
10 9 9 10 9 7 7 7 7 6 6 5 6 6 5 5 5 5 4 4 5 3 1 1 1 4 3 2 3 4 3 4 4 4 4 4 3 3 3 3 3 2 2 3
9 8 8 8 7 6 6 6 5 4 5 4 3 4 4 4 5 5 4 5 6 4 2 1 1 3 3 3 3 3 3 4 5 4 4 4 4 4 3 3 4 3 3 3
9 7 6 6 6 6 6 6 5 5 5 5 5 4 5 5 5 5 5 4 3 3 3 2 2 3 4 4 3 3 3 3 4 4 4 3 3 3 3 4 3 3 3 3
Wind_Direction
122 87 69 47 35 42 56 89 120 122 121 135 128 124 121 119 118 113 111 107 103 101 98 94 90 86 84 81 78 81 81 78 77 76 75 71 68 67 66 71 80 84 86 80
32 88 76 51 36 46 47 57 99 105 91 106 113 114 119 123 123 118 114 109 106 103 100 95 92 90 87 83 80 81 81 76 70 70 72 71 70 67 68 70 75 81 86 90
335 299 75 39 14 56 59 36 74 89 113 123 118 118 123 127 123 118 113 108 103 98 95 92 88 90 91 88 80 77 76 76 74 77 77 72 75 69 66 68 75 83 91 103
40 50 72 156 49 87 83 58 75 104 118 120 117 102 89 101 115 114 110 106 103 101 98 93 91 89 88 85 85 84 82 82 80 82 80 76 74 71 65 65 74 97 144 178
80 81 107 142 334 144 113 81 84 117 119 118 116 96 73 75 97 107 110 111 107 106 103 98 97 97 92 87 86 87 88 94 94 94 94 83 75 62 38 38 352 278 237 217
83 97 120 304 321 131 110 112 148 137 141 145 139 122 131 116 108 106 105 105 104 101 98 98 98 98 94 91 90 95 104 105 102 108 112 111 116 337 307 284 282 293 289 264
80 96 104 302 321 89 115 186 161 149 152 157 135 129 127 120 110 107 107 105 102 100 100 106 106 98 95 91 96 116 117 106 100 111 137 155 174 287 323 347 351 345 342 344
81 92 256 308 29 103 164 126 124 125 123 116 111 111 115 116 115 113 110 107 106 103 103 108 111 106 105 120 151 126 111 102 104 120 198 153 80 329 356 19 24 13 17 11
138 181 229 16 93 115 119 113 113 116 122 124 122 122 119 117 117 114 112 110 109 113 108 101 112 121 126 176 170 143 127 140 255 292 294 247 241 341 31 49 59 35 32 18
84 90 94 84 88 90 102 112 117 123 125 124 123 124 121 119 116 116 116 118 117 112 108 112 130 135 156 169 152 144 178 255 271 276 294 310 326 128 129 116 98 71 31 0
101 130 95 83 111 118 109 109 113 117 119 123 124 125 124 122 122 123 121 123 122 124 130 145 146 152 185 184 151 159 246 277 286 266 269 304 338 192 176 201 183 169 192 220
180 186 150 158 143 127 122 123 126 124 116 118 123 125 122 122 127 126 123 121 123 133 147 160 161 181 213 202 173 175 226 270 273 247 237 186 151 17 353 214 182 173 185 197
143 138 124 128 126 122 123 126 124 124 126 125 120 122 122 125 127 123 123 130 142 157 165 167 168 196 237 223 194 192 216 238 239 228 211 200 187 185 239 322 305 275 270 286
114 107 100 114 124 122 123 120 117 116 120 122 122 121 119 116 119 128 144 160 159 155 156 156 162 222 254 239 214 214 232 248 227 216 198 187 191 190 189 189 277 305 293 286
118 119 127 122 117 118 120 121 120 121 122 119 121 123 123 125 132 144 152 139 116 113 122 121 105 298 297 287 245 228 231 240 203 174 171 166 158 145 147 159 195 286 318 323
120 116 120 123 127 128 128 130 130 132 131 127 127 131 135 137 137 133 130 127 120 125 131 114 20 311 327 31 33 352 296 189 145 138 131 126 126 124 121 123 138 328 332 325
131 138 138 139 140 139 139 140 140 138 134 133 139 139 134 126 124 133 143 142 142 149 156 164 287 323 2 30 43 81 313 129 129 123 126 130 130 138 137 119 93 44 333 342
149 150 151 149 148 145 144 142 139 137 139 143 141 136 135 142 158 174 166 139 119 102 294 269 303 340 354 350 2 166 155 151 144 140 137 125 124 127 118 104 92 71 4 359
136 140 142 143 144 143 143 142 142 141 141 141 141 145 155 164 168 160 145 138 141 186 273 303 357 22 15 3 7 32 139 144 141 134 125 112 100 98 98 94 83 64 39 19
132 136 138 140 140 140 141 142 142 143 145 144 142 144 153 163 153 142 132 143 197 217 236 203 59 45 14 343 359 42 118 136 140 131 115 109 110 106 99 96 90 69 45 31
138 140 141 141 139 140 142 142 142 145 148 146 147 154 160 161 153 144 136 165 265 255 205 106 79 29 347 341 6 73 106 116 120 121 120 118 111 102 99 100 89 71 52 29
142 142 143 140 137 139 142 142 144 146 147 149 152 150 146 145 143 141 162 194 228 157 119 98 92 20 9 16 48 82 106 113 113 114 116 117 114 114 115 110 95 78 56 29
142 142 141 142 142 143 142 144 146 148 152 155 157 159 160 165 160 149 183 236 208 144 133 157 117 40 40 49 65 85 103 114 118 119 120 121 124 127 128 122 110 92 67 40
139 140 141 140 135 136 143 152 152 153 155 158 164 162 152 145 159 191 183 188 182 159 159 194 68 57 58 68 76 82 90 104 114 117 113 110 111 114 118 119 110 91 72 63
141 141 140 140 141 147 154 152 145 147 148 156 166 163 158 160 167 188 186 191 192 184 208 288 71 82 84 98 95 93 93 104 117 119 115 113 111 110 112 114 113 101 84 73
143 146 148 151 151 150 148 144 145 152 151 158 169 165 162 169 169 170 181 198 205 207 220 250 137 126 136 139 128 117 110 107 106 108 117 119 117 116 116 113 104 97 92 88
141 141 142 144 149 151 149 150 153 163 166 164 170 173 168 171 178 184 192 201 203 205 210 197 159 149 146 143 135 130 127 124 121 121 122 120 119 118 118 115 111 105 99 93